Location: City of Moscow
(46.7306°N, 116.9989°W)
Time: 03:30:06
(UTC+00:00)

USA 234 - Pass Details

Date: 16 March 2026
Orbit: 1102 x 1106 km, 123.0° (Epoch: 4 January)

Event Time Altitude Azimuth Distance (km) Brightness Sun altitude
Exits shadow 04:48:50 53° 54° (NE) 1,334 3.5 -29.3°
Maximum altitude 04:49:40 57° 25° (NNE) 1,285 3.5 -29.4°
Drops below altitude 10° 04:56:03 10° 309° (NW) 2,970 6.4 -30.3°
Sets 04:58:35 0° 306° (NW) 3,930 7.3 -30.7°
